Location: Vihti�l�
(61.3833°N, 23.0667°E)
Time: 05:30:58
(UTC+00:00)

ADEOS II - Pass Details

Date: 29 November 2020
Orbit: 799 x 801 km, 98.5° (Epoch: 22 January)

Event Time Altitude Azimuth Distance (km) Brightness Sun altitude
Rises 03:15:10 0° 20° (NNE) 3,329 5.6 -26.1°
Reaches altitude 10° 03:17:52 10° 8° (N) 2,395 4.6 -25.7°
Enters shadow 03:19:59 19° 348° (NNW) 1,827 3.8 -25.5°
